Location: Unspecified
(0.0000°N, 0.0000°E)
Time: 13:44:12
(UTC+02:00)

ASC 2 Rocket - Visible Passes

Search period start: 28 May 2016 00:00
Search period end: 07 June 2016 00:00
Orbit: 556 x 2346 km, 24.0° (Epoch: 27 May)

Date Brightness Start Highest point End Pass type
(mag) Time Alt. Az. Time Alt. Az. Time Alt. Az.
28 May 6.2 07:18:54 10° SSW 07:23:16 16° SSE 07:28:39 10° ESE visible
28 May 4.4 21:55:56 10° NW 22:03:14 46° NNE 22:03:26 46° NNE visible
29 May 5.4 20:48:16 10° NW 20:56:36 36° NNE 21:01:34 14° ENE visible
29 May 5.6 22:52:53 10° WNW 22:56:24 29° WNW 22:56:24 29° WNW visible
30 May 6.0 07:09:04 10° SSW 07:13:32 18° SSE 07:19:09 10° ESE visible
30 May 4.0 21:45:08 10° WNW 21:53:36 68° NNE 21:54:32 60° ENE visible
31 May 5.1 20:37:08 10° NW 20:46:57 50° NNE 20:52:40 14° E visible
31 May 5.3 22:42:37 10° WNW 22:47:31 36° W 22:47:31 36° W visible
01 Jun 5.8 06:59:11 10° SSW 07:03:44 21° SSE 07:09:37 10° ESE visible
01 Jun 4.1 21:34:24 10° WNW 21:43:48 88° SSW 21:45:38 53° ESE visible
02 Jun 6.0 05:56:49 10° SSE 05:57:23 10° SSE 05:58:25 10° SE visible
02 Jun 5.0 20:26:03 10° WNW 20:37:05 67° NNE 20:43:47 12° ESE visible
02 Jun 5.2 22:32:27 10° W 22:38:38 37° WSW 22:38:38 37° WSW visible
03 Jun 5.5 06:49:51 12° SSW 06:53:53 25° SSE 06:59:59 10° E visible
03 Jun 4.6 21:23:44 10° WNW 21:33:50 68° SSW 21:36:46 38° SE visible
04 Jun 5.9 05:48:01 12° SSE 05:48:01 12° SSE 05:50:11 10° SE visible
04 Jun 5.0 20:15:03 10° WNW 20:27:03 86° NNE 20:34:51 10° ESE visible
04 Jun 5.4 22:22:22 10° W 22:29:45 33° SW 22:29:45 33° SW visible
05 Jun 5.0 06:41:04 19° SSW 06:44:02 31° SSE 06:50:14 10° E visible
05 Jun 5.1 21:13:11 10° WNW 21:23:43 53° SSW 21:27:53 27° SE visible
05 Jun 6.8 23:22:34 10° WSW 23:22:44 10° WSW 23:22:44 10° WSW visible
06 Jun 5.7 05:39:14 15° SE 05:39:14 15° SE 05:41:23 10° ESE visible
06 Jun 5.3 20:04:09 10° WNW 20:16:49 77° SSW 20:25:15 10° ESE visible
06 Jun 5.6 22:12:26 10° W 22:20:12 27° SSW 22:20:51 27° SSW visible
